Flag for Austria Weather past 2 weeks in Waidhofen an der Thaya, Lower Austria, Austria

Now
79 °F

Warm.


Feels Like: 80 °F
Forecast: 59 / 79 °F
Wind: 5 mph from Southeast

Location: Retz

Current Time: Jul 26, 2014 at 1:15:27 PM

Latest Report: Jul 26, 2014 at 12:00 PM


Visibility: N/A

Pressure: 29.88 "Hg

Humidity: 52%

Dew point: 60 °F

Location of Waidhofen an der ThayaLocation

Historic Weather in Waidhofen an der Thaya — Graph

°F

Waidhofen an der Thaya temperature yesterday

Maximum temperature yesterday: 79 °F (at 5:00 PM)
Minimum temperature yesterday: 60 °F (at 7:00 AM)
Average temperature yesterday: 70 °F

Past Weeks' High & Low Weather Summary

 TemperatureHumidityPressure
High90 °F (Jul 20, 3:00 PM)96% (Jul 14, 6:00 AM)30.12 "Hg (Jul 14, 6:00 AM)
Low57 °F (Jul 14, 6:00 AM)34% (Jul 17, 3:00 PM)29.65 "Hg (Jul 21, 4:00 PM)
Average71 °F65%29.91 "Hg
* Reported Jul 11 12:00 Noon — Jul 26 12:00 Noon, Waidhofen an der Thaya, Weather by CustomWeather, © 2014

Note: Actual official high and low records may vary slightly from our data, if they occured in-between our weather recording intervals... More about our weather records

Advertising

Waidhofen an der Thaya weather history for previous 24 hours

 ConditionsComfort  
Time TempWeatherWind HumidityBarometerVisibility
12:00 PM
Jul 26
79 °FWarm.5 mph52%29.88 "HgN/A
11:00 AM76 °FMild.5 mph57%29.90 "HgN/A
10:00 AM72 °FMild.3 mph66%29.91 "HgN/A
9:00 AM71 °FMild.5 mph69%29.92 "HgN/A
8:00 AM67 °FPassing clouds.5 mph75%29.93 "Hg11 mi
7:00 AM64 °FPassing clouds.3 mph77%29.91 "Hg7 mi
6:00 AM63 °FMild.5 mph79%29.91 "HgN/A
5:00 AM63 °FMild.3 mph80%29.92 "HgN/A
4:00 AM65 °FMild.3 mph78%29.91 "HgN/A
3:00 AM66 °FMild.3 mph74%29.92 "HgN/A
2:00 AM67 °FMild.2 mph72%29.92 "HgN/A
1:00 AM68 °FMild.2 mph69%29.93 "HgN/A
12:00 AM68 °FMild.3 mph69%29.93 "HgN/A
11:00 PM
Jul 25
70 °FMild.No wind59%29.91 "HgN/A
10:00 PM71 °FMild.2 mph57%29.90 "HgN/A
9:00 PM72 °FMild.2 mph55%29.89 "HgN/A
8:00 PM75 °FPassing clouds.3 mph54%29.88 "Hg17 mi
7:00 PM78 °FWarm.3 mph42%29.87 "HgN/A
6:00 PM78 °FWarm.3 mph44%29.87 "HgN/A
5:00 PM79 °FWarm.5 mph47%29.87 "HgN/A
4:00 PM78 °FWarm.5 mph49%29.87 "HgN/A
3:00 PM78 °FWarm.1 mph48%29.88 "HgN/A
2:00 PM77 °FPartly sunny.3 mph51%29.89 "Hg19 mi
1:00 PM76 °FMild.3 mph55%29.90 "HgN/A
Weather by CustomWeather, © 2014

See weather overviewHow to use our weather pages